Location: Greenwich
(51.4790°N, 0.0090°E)
Time: 23:03:39
(UTC+01:00)

Altair - Pass Details

Date: 24 April 2024
Orbit: 1502 x 1682 km, 47.2° (Epoch: 23 May)

Event Time Altitude Azimuth Distance (km) Brightness Sun altitude
Rises 01:25:50 0° 287° (WNW) 4,844 10.2 -25.3°
Reaches altitude 10° 01:29:28 10° 278° (W) 3,828 9.6 -25.2°
Enters shadow 01:36:25 29° 232° (SW) 2,559 8.2 -25.0°
Maximum altitude 01:37:24 30° 222° (SW) 2,527 - -25.0°
Drops below altitude 10° 01:45:07 10° 166° (SSE) 3,701 - -24.7°
Sets 01:48:34 0° 156° (SSE) 4,660 - -24.6°
